www.pogodaiklimat.ru
Время
(UTC), дата
01 18.01
02 18.01
03 18.01
04 18.01
05 18.01
06 18.01
07 18.01
08 18.01
09 18.01
10 18.01
11 18.01
12 18.01
13 18.01
14 18.01
15 18.01
16 18.01
17 18.01
18 18.01
19 18.01
20 18.01
21 18.01
22 18.01
23 18.01
00 19.01
01 19.01
02 19.01
03 19.01
04 19.01
05 19.01
06 19.01
07 19.01
08 19.01
09 19.01
10 19.01
11 19.01
12 19.01
13 19.01
14 19.01
15 19.01
16 19.01
17 19.01
18 19.01
19 19.01
20 19.01
21 19.01
22 19.01
23 19.01
00 20.01
01 20.01
02 20.01
03 20.01
04 20.01
05 20.01
06 20.01
07 20.01
08 20.01
09 20.01
10 20.01
11 20.01
12 20.01
13 20.01
14 20.01
15 20.01
16 20.01
17 20.01
18 20.01
19 20.01
20 20.01
21 20.01
22 20.01
23 20.01
00 21.01
01 21.01
02 21.01
03 21.01
04 21.01
05 21.01
06 21.01
07 21.01
08 21.01
09 21.01
10 21.01
11 21.01
12 21.01
13 21.01
14 21.01
15 21.01
16 21.01
17 21.01
18 21.01
19 21.01
20 21.01
21 21.01
22 21.01
23 21.01
00 22.01
01 22.01
02 22.01
03 22.01
04 22.01
05 22.01
06 22.01
07 22.01
08 22.01
09 22.01
10 22.01
11 22.01
12 22.01
13 22.01
14 22.01
15 22.01
16 22.01
17 22.01
18 22.01
19 22.01
20 22.01
21 22.01
22 22.01
23 22.01
00 23.01
01 23.01
02 23.01
03 23.01
04 23.01
05 23.01
06 23.01
07 23.01
08 23.01
09 23.01
10 23.01
11 23.01
12 23.01
13 23.01
14 23.01
15 23.01
16 23.01
17 23.01
18 23.01
19 23.01
20 23.01
21 23.01
22 23.01
23 23.01
00 24.01
01 24.01
02 24.01
03 24.01
04 24.01
05 24.01
06 24.01
07 24.01
08 24.01
09 24.01
10 24.01
11 24.01
12 24.01
13 24.01
14 24.01
15 24.01
16 24.01
17 24.01
18 24.01
19 24.01
20 24.01
21 24.01
22 24.01
23 24.01
Ветер
(напр.,м/с)
Видим. Явления Облачность Т
(С)
Тd
(С)
f
(%)
Тe
(С)
Тes
(С)
Комфортность P
(гПа)
Po
(гПа)
Тmin
(С)
Tmax
(С)
R
(мм)
R24
(мм)
S
(см)
ЮЗ 4
{5}
15 км 9/9 840 м
[Cu Sc]
+3.9 +2.1 88 -1 -1 по сезону 1025.4 1018.5
З 4
{6}
15 км 9/9 570 м
[Cu Sc]
+3.7 +1.8 87 -1 -1 тепло 1025.2 1018.2
ЮЗ 4
{7}
12 км 9/4 500 м
[Cu Sc Ci fib]
+3.5 +1.9 89 -1 -1 по сезону 1025.0 1018.1
ЮЗ 4
{6}
12 км 9/1 600 м
[Sc Ci fib]
+2.9 +1.4 90 -2 -2 тепло 1025.0 1018.0
ЮЗ 4
{5}
12 км 9/1 420 м
[Sc Ci fib]
+2.3 +0.9 90 -3 -3 тепло 1024.7 1017.8
ЮЗ 4
{7}
12 км 6/0
[Ac As Ci fib]
+2.5 +1.1 90 -2 -2 по сезону 1024.5 1017.5 +2.0
ЮЗ 5
{7}
12 км 8/0
[Ac trans Ci fib]
+2.4 +1.0 90 -3 -3 по сезону 1024.5 1017.5
ЮЗ 4
{7}
15 км 8/0
[Ac trans]
+2.3 +0.9 90 -3 -3 тепло 1024.3 1017.3
ЮЗ 4
{7}
15 км осадки на расстоянии 9/1 300 м
[St Ac trans Ci fib]
+3.2 +1.6 89 -2 -1 по сезону 1024.4 1017.5
ЮЗ 6
{9}
15 км осадки на расстоянии 9/1 360 м
[Sc Ac trans Ci fib]
+4.4 +2.3 86 -1 -1 тепло 1024.6 1017.7
ЮЗ 5
{9}
15 км 9/3 330 м
[Sc Ac trans]
+4.9 +2.4 84 0 +1 тепло 1024.3 1017.4
ЮЗ 6
{9}
15 км 9/3 420 м
[Sc Ac trans]
+5.8 +2.9 82 +1 +1 по сезону 1023.6 1016.8
ЮЗ 6
{10}
20 км 9/4 450 м
[Sc Ac trans]
+5.6 +2.9 83 +1 +1 тепло 1022.9 1016.1
ЮЗ 5
{10}
20 км 10/6 450 м
[Sc As op]
+5.7 +3.0 83 +1 +1 тепло 1022.3 1015.5
ЮЗ 6
{10}
20 км 10/9 330 м
[Sc Ac trans]
+5.3 +2.9 84 0 0 по сезону 1022.2 1015.4
ЮЗ 6
{10}
20 км 10/9 400 м
[Sc Ac trans]
+4.8 +2.8 87 -0 -0 тепло 1022.1 1015.2
ЮЗ 5
{9}
20 км 10/9 360 м
[Sc]
+4.8 +3.0 88 0 0 тепло 1022.0 1015.1
ЮЗ 5
{10}
20 км 9/6 330 м
[Sc Ac trans]
+5.0 +3.2 88 0 0 по сезону 1021.8 1015.0 +5.8
ЮЗ 7
{10}
20 км слаб. ливневой дождь 9/9 330 м
[Cu Sc]
+5.3 +3.4 88 -0 -0 тепло 1021.6 1014.8
ЮЗ 6
{10}
20 км в посл. час ливневой дождь 9/9 330 м
[Cu Sc]
+5.0 +3.3 89 -0 -0 тепло 1020.9 1014.0
ЮЗ 7
{10}
15 км слаб. ливневой дождь 9/9 330 м
[Cu Sc]
+5.1 +3.3 88 -0 -0 по сезону 1020.4 1013.6
ЮЗ 6
{9}
20 км в посл. час ливневой дождь 9/9 1200 м
[Sc]
+5.1 +2.7 84 0 0 тепло 1019.7 1012.9
ЮЗ 7
{10}
20 км 9/9 1380 м
[Sc]
+5.1 +2.0 80 -0 -0 тепло 1019.1 1012.3
ЮЗ 7
{10}
20 км {ливн. дождь} 9/4 1500 м
[Sc Ac trans]
+4.5 +1.3 80 -1 -1 по сезону 1018.1 1011.2 0.0
ЮЗ 7
{11}
20 км 4/0
[Ac trans Ci fib]
+4.2 +1.5 83 -2 -2 тепло 1017.0 1010.2
ЮЗ 8
{13}
20 км 6/5 480 м
[Sc Ac trans Ci fib]
+4.5 +1.7 82 -2 -2 тепло 1015.7 1008.9
ЮЗ 8
{13}
10 км слаб. дождь 9/9 360 м
[Frnb]
+4.5 +2.6 87 -2 -2 по сезону 1014.2 1007.4
ЮЗ 10
{16}
7000 м слаб. дождь 9/9 270 м
[Frnb]
+4.6 +3.1 90 -2 -2 тепло 1012.9 1006.1
ЮЗ 11
{16}
8000 м слаб. дождь 9/9 270 м
[Frnb]
+5.1 +3.3 88 -2 -2 тепло 1011.4 1004.6
ЮЗ 9
{16}
8000 м дождь 9/9 360 м
[Frnb]
+5.1 +3.6 90 -1 -1 по сезону 1010.6 1003.8 +4.0 1
ЮЗ 10
{15}
8000 м дождь 10/1 270 м
[Frnb Ac As]
+5.2 +3.7 90 -1 -1 тепло 1009.6 1002.8
ЮЗ 11
{17}
9000 м слаб. дождь 10/1 300 м
[Frnb Ac As]
+5.6 +4.2 91 -1 -1 тепло 1008.8 1002.0
ЮЗ 10
{17}
20 км слаб. дождь 10/10 270 м
[Sc]
+6.0 +4.9 93 -0 -0 по сезону 1008.5 1001.8
ЮЗ 12
{17}
25 км в посл. час дождь 9/9 270 м
[Sc]
+7.2 +5.5 89 +1 +1 тепло 1008.6 1001.9
ЮЗ 11
{17}
25 км 9/9 270 м
[Sc]
+8.0 +6.2 88 +2 +2 тепло 1008.5 1001.8
ЮЗ 10
{19}
9000 м дождь 10/9 180 м
[Frnb]
+7.6 +6.2 91 +2 +2 по сезону 1008.9 1002.2 5
ЮЗ 10
{15}
10 км дождь {морось} 10/10 180 м
[Frnb]
+7.8 +6.4 91 +2 +2 тепло 1008.4 1001.7
ЮЗ 10
{14}
7000 м слаб. морось 10/10 150 м
[Frnb]
+8.0 +6.6 91 +3 +3 тепло 1008.4 1001.8
ЮЗ 8
{15}
10 км в посл. час морось {дождь} 10/10 180 м
[Frnb]
+7.7 +6.2 90 +3 +3 тепло 1008.4 1001.7
ЮЗ 8
{14}
9000 м слаб. морось 10/10 210 м
[Frnb]
+7.3 +5.8 90 +2 +2 тепло 1008.7 1002.0
ЮЗ 8
{13}
10 км слаб. морось 10/10 210 м
[Frnb]
+6.8 +5.3 90 +2 +2 тепло 1008.9 1002.2
ЮЗ 8
{15}
20 км в посл. час морось {дождь} 10/10 270 м
[St]
+6.5 +4.4 86 +1 +1 по сезону 1008.4 1001.7 +8.1 5
ЮЗ 9
{13}
20 км 9/9 360 м
[St]
+6.1 +3.9 86 0 0 тепло 1008.3 1001.6
ЮЗ 8
{13}
10 км 9/9 330 м
[St]
+6.0 +4.1 88 0 0 тепло 1007.7 1001.0
ЮЗ 8
{13}
20 км 9/9 360 м
[St]
+6.3 +4.0 85 +1 +1 по сезону 1007.0 1000.2
ЮЗ 8
{13}
20 км 9/5 540 м
[Sc Ac trans]
+6.3 +3.7 83 +1 +1 тепло 1006.1 999.4
Ю 8
{15}
20 км 9/1 660 м
[Sc Ac trans]
+5.9 +2.8 80 0 0 тепло 1005.1 998.4
ЮЗ 8
{15}
20 км 9/9 570 м
[Sc]
+6.4 +3.0 79 +1 +1 по сезону 1004.4 997.7
Ю 8
{14}
20 км 9/9 600 м
[Sc]
+6.8 +3.3 78 +2 +2 тепло 1003.7 997.0
ЮЗ 9
{14}
20 км слаб. дождь 9/4 660 м
[Sc As op]
+6.7 +3.7 81 +1 +1 тепло 1003.2 996.5
ЮЗ 9
{15}
20 км в посл. час дождь 9/4 1500 м
[Sc Ac trans]
+7.1 +4.0 81 +2 +2 по сезону 1002.2 995.5
Ю 7
{14}
20 км 9/9 1020 м
[Sc]
+7.0 +3.2 77 +2 +2 тепло 1001.7 995.1
ЮЗ 10
{14}
20 км слаб. дождь 9/9 750 м
[Sc]
+7.9 +4.0 76 +3 +3 тепло 1001.2 994.6
ЮЗ 8
{15}
20 км слаб. дождь 9/6 1080 м
[Sc As op]
+6.9 +4.7 86 +2 +2 по сезону 1000.9 994.3 +5.8 0.3
Ю 8
{12}
20 км слаб. дождь 10/9 960 м
[Sc]
+7.0 +4.8 86 +2 +2 тепло 1000.5 993.8
Ю 9
{14}
20 км в посл. час дождь 6/6 1500 м
[Sc Ac trans Ci fib]
+6.9 +3.6 79 +2 +2 тепло 1000.2 993.5
Ю 8
{14}
20 км {дождь} 8/3 1500 м
[Sc Ac As Ci fib]
+7.1 +1.5 68 +2 +2 по сезону 1000.3 993.7
Ю 8
{13}
20 км 8/5 1260 м
[Sc Ac As Ci fib]
+7.7 +1.5 65 +3 +3 тепло 999.7 993.0
Ю 8
{15}
20 км 8/3 2000 м
[Sc Ac As Ci fib]
+8.8 +1.7 61 +5 +5 тепло 999.0 992.4
Ю 8
{15}
20 км {дождь} 9/0
[As trans]
+8.9 +1.9 61 +5 +5 по сезону 998.2 991.6 0.0
Ю 9
{14}
20 км в посл. час дождь 9/0
[Ac As]
+9.3 +2.5 62 +5 +5 тепло 996.3 989.8
Ю 9
{14}
20 км 9/4 2000 м
[Sc As trans]
+9.8 +1.5 56 +6 +6 тепло 996.2 989.7
Ю 8
{16}
20 км {дождь} 6/0
[Ac As Ci fib]
+9.9 +1.3 55 +6 +6 тепло 995.4 988.8
Ю 8
{14}
20 км 8/0
[Ac trans Ci fib]
+10.0 +2.2 58 +6 +6 тепло 994.4 987.8
Ю 7
{14}
20 км 8/0
[Ci fib]
+9.7 +2.4 60 +6 +6 тепло 994.4 987.9
Ю 7
{16}
20 км {дождь} 9/0
[Ci fib]
+9.9 +2.6 60 +6 +6 тепло 994.1 987.6 +10.1 0.0
Ю 6
{15}
20 км 9/4 1500 м
[Sc As trans]
+10.3 +3.4 62 +7 +7 тепло 993.2 986.7
Ю 7
{13}
30 км слаб. дождь 9/9 1410 м
[Sc]
+10.0 +5.4 73 +6 +6 тепло 992.7 986.1
Ю 8
{15}
30 км в посл. час дождь 6/3 1500 м
[Sc As trans Ci fib]
+10.4 +4.7 68 +7 +7 тепло 991.5 985.0
Ю 10
{15}
30 км 9/1 1500 м
[Sc As trans]
+10.5 +4.5 66 +6 +6 тепло 990.2 983.7
Ю 12
{16}
30 км 9/0
[Ac As]
+10.3 +4.7 68 +6 +6 тепло 988.8 982.3
Ю 14
{21}
30 км {дождь} 4/1 1440 м
[Sc Ac trans Ci fib]
+11.3 +4.2 62 +7 +7 тепло 986.7 980.3 0.0
Ю 14
{23}
30 км 5/1 1350 м
[Sc diur, vesp Ac trans Ci fib]
+11.4 +4.0 60 +7 +7 тепло 985.3 978.9
Ю 15
{23}
20 км слаб. дождь 9/9 540 м
[Sc]
+10.6 +5.4 70 +6 +6 тепло 984.9 978.4
Ю 13
{23}
7000 м слаб. ливневой дождь 10/9 480 м
[Cu Sc]
+9.4 +6.8 84 +4 +4 тепло 984.6 978.1
ЮЗ 10
{25}
15 км слаб. ливневой дождь 9/9 450 м
[Cu Sc]
+6.0 +4.4 89 -0 -0 тепло 988.3 981.7
ЮЗ 9
{16}
30 км в посл. час ливневой дождь 8/4 870 м
[Sc Ac trans Ci fib]
+5.9 +3.1 82 0 0 тепло 989.2 982.6
ЮЗ 8
{25}
40 км {ливн. дождь, дождь} 5/3 1020 м
[Sc Ac trans Ci fib]
+5.9 +3.3 83 0 0 по сезону 990.6 984.0 +4.9 3
ЮЗ 8
{13}
40 км 1/1 930 м
[Sc]
+5.6 +2.6 81 0 0 тепло 991.7 985.0
ЮЗ 9
{13}
30 км слаб. дождь 9/9 750 м
[Sc]
+5.8 +2.7 80 0 0 тепло 992.7 986.1
ЮЗ 8
{13}
50 км в посл. час дождь 8/8 630 м
[Sc]
+6.1 +2.7 79 +1 +1 по сезону 993.3 986.7
ЮЗ 9
{14}
50 км 9/6 600 м
[Sc Ci sp]
+6.8 +2.6 75 +1 +2 тепло 993.7 987.0
ЮЗ 8
{16}
50 км 9/9 720 м
[Sc]
+6.9 +2.8 75 +2 +2 тепло 994.0 987.4
ЮЗ 10
{16}
50 км {дождь} 9/9 720 м
[Sc]
+7.1 +3.0 75 +2 +2 по сезону 993.7 987.1 0.0
ЮЗ 8
{15}
50 км 9/5 750 м
[Sc Ci sp]
+7.5 +2.9 73 +3 +3 тепло 993.1 986.5
ЮЗ 11
{16}
50 км 9/8 750 м
[Sc]
+7.7 +3.0 72 +2 +2 тепло 992.8 986.2
ЮЗ 9
{16}
50 км 9/6 840 м
[Sc Ac trans]
+7.8 +3.2 73 +3 +3 по сезону 992.3 985.7
ЮЗ 9
{15}
50 км 10/8 840 м
[Sc]
+7.9 +2.5 69 +3 +3 тепло 991.7 985.1
Ю 5
{15}
11 км слаб. дождь 10/9 360 м
[Sc]
+6.7 +3.8 82 +3 +3 тепло 990.7 984.1
ЮВ 2
{16}
9000 м слаб. дождь 10/9 150 м
[Sc]
+5.9 +4.5 91 +3 +3 по сезону 988.7 982.0 +8.0 2
ЮВ 5
{8}
10 км слаб. дождь 9/3 300 м
[Frnb Ac As]
+6.4 +5.2 92 +2 +2 тепло 986.0 979.4
Ю 8
{12}
20 км слаб. дождь 9/1 300 м
[Frnb Ac As]
+8.5 +6.7 88 +4 +4 тепло 984.3 977.8
ЮЗ 10
{15}
30 км слаб. ливневой дождь 9/9 420 м
[Cu Sc]
+8.8 +6.9 88 +4 +4 тепло 983.8 977.3
ЮЗ 9
{17}
10 км слаб. ливневой дождь 9/9 540 м
[Cu Sc]
+8.9 +6.7 86 +4 +4 тепло 983.4 976.9
ЮЗ 9
{15}
10 км слаб. ливневой дождь 9/9 450 м
[Cu Sc]
+8.6 +6.6 87 +4 +4 тепло 983.3 976.8
З 8
{17}
9000 м в посл. час ливневой дождь 9/9 240 м
[Sc]
+4.7 +3.2 90 -1 -1 по сезону 985.8 979.2 8
СЗ 6
{11}
10 км слаб. дождь 5/4 240 м
[Sc Ac trans Ci fib]
+3.6 +2.2 91 -2 -2 по сезону 987.6 980.9
ЮЗ 3
{8}
30 км 9/9 330 м
[Sc]
+3.6 +2.2 91 -0 -0 тепло 988.8 982.1
ЮЗ 4
{11}
30 км {дождь} 6/1 330 м
[St Ac trans Ci fib]
+3.7 +2.2 90 -1 -1 по сезону 989.4 982.8
ЮЗ 4
{7}
30 км 8/1 630 м
[Sc Ac trans Ci fib]
+3.6 +2.2 91 -1 -1 тепло 990.3 983.7
ЮЗ 5
{8}
30 км 9/4 480 м
[Sc Ac trans]
+4.1 +2.3 88 -1 -1 тепло 990.5 983.8
ЮЗ 5
{11}
30 км {дождь} 9/5 450 м
[Sc Ac trans]
+4.1 +2.5 89 -1 -1 по сезону 990.8 984.1 +3.4 9
ЮЗ 4
{8}
25 км 9/4 360 м
[Sc Ac As]
+4.0 +2.5 90 -1 -1 тепло 991.4 984.7
ЮЗ 3
{6}
25 км 9/1 360 м
[Sc Ac As]
+3.8 +2.2 89 -0 -0 тепло 992.3 985.7
ЮЗ 4
{8}
25 км 9/1 360 м
[Sc Ac As Ci fib]
+4.1 +2.5 89 -0 -0 по сезону 993.2 986.5
ЮЗ 4
{6}
30 км 9/1 360 м
[Sc Ac As Ci fib]
+4.5 +2.8 89 0 +1 по сезону 994.0 987.3
ЮЗ 4
{6}
30 км 9/1 360 м
[Cu hum Ac As Ci fib]
+5.2 +2.6 83 +1 +2 тепло 994.5 987.8
З 3
{8}
30 км 8/1 360 м
[Cu hum Ac As Ci fib]
+6.2 +1.9 74 +3 +4 по сезону 994.9 988.3
З 4
{7}
30 км 8/1 660 м
[Cu hum Ac As Cs]
+6.9 +1.4 68 +4 +4 тепло 995.3 988.6
З 4
{6}
30 км 8/1 800 м
[Cu hum As trans Cs]
+6.7 -0.5 60 +3 +4 тепло 995.6 989.0
З 4
{7}
35 км 8/1 900 м
[Cu hum Ac As Cs]
+6.5 0.0 63 +3 +3 по сезону 995.8 989.1
З 4
{6}
35 км 8/0
[Ac As Ci fib]
+5.3 -0.6 66 +2 +2 тепло 995.9 989.2
ЮЗ 2
{5}
35 км 9/0
[Ac As Ci fib]
+3.6 -0.2 76 +1 +1 тепло 996.2 989.5
ЮЗ 3
{7}
35 км 9/0
[Ci fib]
+2.3 -0.8 80 -2 -2 по сезону 996.6 989.9 +7.0
Ю 2
{3}
35 км 9/0
[Ci fib]
+1.8 -1.1 81 -1 -1 по сезону 997.0 990.2
Ю 3
{3}
35 км 9/0
[Ci fib]
+1.8 -0.5 85 -2 -2 тепло 997.2 990.4
Ю 3
{4}
35 км 5/0
[Ci fib]
+1.9 +0.1 88 -2 -2 по сезону 997.3 990.5
Ю 4
{5}
35 км 6/0
[Ci fib]
+2.0 +0.3 88 -3 -3 по сезону 997.1 990.3
Ю 3
{5}
35 км 6/0
[Ci fib]
+2.0 +0.5 90 -2 -2 тепло 997.2 990.4
Ю 4
{6}
35 км 9/0
[Ac trans Ci fib]
+2.0 +0.4 89 -3 -3 по сезону 996.7 989.9
Ю 4
{6}
35 км 9/3 1440 м
[Sc As trans]
+2.6 +1.0 89 -2 -2 по сезону 996.5 989.7
Ю 4
{6}
35 км 8/6 1200 м
[Sc Ac trans Ci fib]
+3.1 +1.2 87 -2 -2 тепло 996.6 989.9
Ю 3
{6}
35 км 8/8 480 м
[Sc]
+3.8 +1.6 86 0 0 по сезону 996.2 989.5
ЮЗ 5
{7}
35 км 6/6 540 м
[Sc Ci fib]
+3.6 +1.5 86 -2 -2 по сезону 996.0 989.3
ЮЗ 6
{8}
35 км 3/3 480 м
[Sc Ci fib]
+3.5 +1.4 86 -2 -2 тепло 995.8 989.0
Ю 4
{8}
35 км 1/1 420 м
[Sc]
+2.9 +1.0 87 -2 -2 по сезону 995.8 989.0 +1.6
Ю 3
{6}
35 км 5/1 480 м
[Sc Ac trans Ci]
+2.5 +0.5 87 -2 -2 по сезону 996.0 989.2
Ю 3
{6}
35 км 8/5 400 м
[Sc Ac trans Ci]
+2.2 +0.6 89 -2 -2 тепло 996.2 989.5
Ю 4
{7}
35 км 9/4 450 м
[Sc Ac und Ci]
+3.7 +1.6 86 -1 -1 по сезону 995.9 989.2
ЮЗ 4
{7}
35 км 9/5 450 м
[Sc Ac und Ci]
+4.2 +1.8 84 -0 0 по сезону 995.5 988.8
Ю 4
{6}
35 км 9/5 500 м
[Sc Ac As Ci fib]
+4.8 +2.1 83 +1 +1 тепло 995.2 988.5
Ю 3
{7}
35 км 9/8 500 м
[Sc Ac As Ci fib]
+5.0 +1.8 80 +2 +2 по сезону 994.8 988.1
Ю 3
{7}
30 км слаб. ливневой дождь 9/6 540 м
[Cu Sc Ac As]
+5.1 +1.9 80 +2 +2 тепло 994.1 987.4
Ю 3
{5}
30 км в посл. час ливневой дождь 9/4 800 м
[Sc Ac As]
+5.1 +1.8 79 +2 +2 тепло 993.5 986.9
штиль 0
{7}
30 км {ливн. дождь} 9/1 630 м
[Sc Ac As]
+5.1 +1.3 76 +4 +5 по сезону 993.3 986.6
В 1
{1}
25 км 9/4 720 м
[Cu med, cong Ac As]
+4.6 +1.5 80 +3 +3 тепло 993.2 986.6
СЗ 2
{3}
25 км 9/4 720 м
[Cu Sc Ac As]
+4.0 +1.9 86 +1 +1 тепло 993.3 986.6
СЗ 4
{7}
18 км слаб. дождь 9/4 210 м
[Frnb Ac As]
+3.4 +1.9 90 -1 -1 по сезону 993.2 986.5 +5.3
СЗ 5
{9}
7000 м слаб. дождь 10/9 120 м
[Frnb]
+1.3 +0.1 92 -5 -5 по сезону 993.8 987.0
СЗ 4
{8}
2600 м снег {дождь} 10/9 60 м
[Frnb]
+0.2 -0.9 92 -5 -5 по сезону 994.3 987.5
СЗ 3
{9}
4000 м снег {дождь} 10/9 60 м
[Frnb]
+0.2 -0.9 92 -5 -5 прохладно 994.4 987.6
СЗ 2
{5}
9000 м в посл. час дождь со снегом 9/9 60 м
[Sc]
+0.5 -0.6 92 -3 -3 по сезону 994.8 988.0
З 4
{6}
7000 м слаб. дождь 10/9 120 м
[Frnb]
+0.8 -0.4 92 -5 -5 тепло 995.2 988.4
З 5
{9}
30 км в посл. час дождь 9/9 240 м
[Sc]
+1.1 -0.6 88 -5 -5 прохладно 995.5 988.8 2
З 5
{7}
50 км 9/9 240 м
[Sc]
+1.0 -0.6 89 -5 -5 по сезону 996.0 989.2
З 6
{8}
30 км 9/9 180 м
[St]
+1.1 -0.5 89 -5 -5 тепло 996.8 990.0
З 5
{8}
4000 м ливневой снег {дождь} 9/8 150 м
[Frnb]
+0.7 -0.6 91 -5 -5 прохладно 997.4 990.6
З 4
{7}
13 км в посл. час ливневой снег 9/5 180 м
[St Ac trans]
+0.5 -0.9 90 -5 -5 по сезону 998.1 991.3
З 5
{8}
25 км 9/9 870 м
[Sc]
+1.0 -0.8 88 -5 -5 тепло 998.7 991.9
З 4
{8}
25 км {ливн. снег, снег} 9/9 930 м
[Sc]
+1.1 -0.8 87 -4 -4 по сезону 999.2 992.4 0.0 3 <0.5
ЮЗ 5
{7}
18 км 4/4 1000 м
[Sc]
+0.8 -1.1 87 -5 -5 по сезону 999.7 992.9
ЮЗ 4
{7}
18 км 3/3 1200 м
[Sc Ci]
+0.3 -1.4 88 -5 -5 тепло 1000.6 993.8
ЮЗ 4
{7}
18 км 4/1 720 м
[Sc Ci]
+0.8 -1.2 86 -4 -4 прохладно 1001.1 994.3
ЮЗ 4
{6}
18 км 6/0
[As trans Ci]
+1.6 -1.0 83 -3 -2 по сезону 1001.4 994.6
ЮЗ 3
{6}
18 км 8/0
[As trans Ci]
+2.4 -0.7 80 -2 -0 тепло 1001.5 994.7
ЮЗ 4
{7}
18 км 9/1 450 м
[Cu hum As trans Ci]
+2.6 -0.3 81 -2 -1 прохладно 1001.3 994.6
ЮЗ 4
{7}
18 км 9/0
[Ac As Ci fib]
+2.2 -1.1 79 -3 -2 по сезону 1000.8 994.0
Ю 4
{7}
18 км 9/0
[Ac As]
+2.1 -0.9 81 -3 -2 тепло 1000.1 993.3
Ю 3
{7}
25 км осадки на расстоянии 9/0
[Ac As]
+2.3 -1.0 79 -2 -2 по сезону 999.7 992.9
Ю 4
{6}
25 км 9/3 1000 м
[Sc Ac As]
+1.9 -1.0 81 -3 -3 по сезону 999.3 992.5
ЮВ 3
{6}
15 км слаб. снег 9/5 720 м
[Sc Ac As]
+1.7 -1.1 82 -3 -3 тепло 998.7 991.9
ЮВ 5
{8}
20 км слаб. снег 9/4 210 м
[Sc Ac As]
+1.7 -1.0 82 -4 -4 прохладно 997.9 991.2 +2.8
ЮВ 5
{10}
10 км слаб. дождь со снегом 10/9 150 м
[Sc]
+1.2 -0.8 87 -5 -5 по сезону 997.0 990.3
ЮВ 4
{8}
10 км слаб. снег {дождь} 10/9 270 м
[Sc]
+1.1 -0.4 90 -4 -4 тепло 996.8 990.0
ЮВ 4
{10}
10 км слаб. дождь 10/9 420 м
[Sc]
+1.0 -0.4 90 -4 -4 прохладно 996.5 989.7
Ю 3
{6}
30 км в посл. час дождь со снегом 9/9 180 м
[Sc]
+0.8 -0.4 92 -4 -4 по сезону 996.4 989.6
Ю 3
{5}
30 км 9/9 210 м
[St]
+1.1 -0.2 91 -3 -3 тепло 996.5 989.7
Местоположение метеостанции Брюссель (Бельгия): широта 50.90 долгота 4.53 высота над уровнем моря 58 м.
В архиве по умолчанию представлена погода в Брюсселе за последнюю неделю. Архивные данные за месяц целиком и за предыдущие месяцы, начиная с января 2011 года, Вы можете получить, выбрав интересующий диапазон дат из раскрывающегося списка и нажав кнопку "Найти!".
*Определитесь, кто Вы:
Внимание! Время в таблицах - всемирное. Для получения местного времени необходимо прибавить поправку, которая равна 1 ч.
Смотрите также архив погоды в соседних городах и на ближайших метеорологических станциях:
Партнеры нашего сайта:      
Пояснения к столбцам:
  • Ветер - указаны скорость ветра в м/с - средняя за 10 мин, порывы в срок и между сроками (в фигурных скобках) и направление, откуда дует ветер: С - северный,
  • СВ - северо-восточный, В - восточный, ЮВ - юго-восточный, Ю - южный, ЮЗ - юго-западный, З - западный, СЗ - северо-западный.
  • Видимость - горизонтальная дальность видимости в метрах или километрах. При видимости от 1 до 10 км при отсутствии осадков обычно наблюдается дымка, при ухудшении видимости до 1 км и менее - туман. В сухую погоду видимость может ухудшаться дымом, пылью или мглою.
  • Явления - указаны атмосферные явления, наблюдавшиеся в срок или в последний час перед сроком; фигурными скобками обозначены явления, наблюдавшиеся между сроками (за 1-3 часа до срока); квадратными скобками обозначены град или гололедные отложения с указанием их диаметра в мм.
  • Облачность - указаны через наклонную черту общая и нижняя облачность в баллах и высота нижней границы облаков в метрах; квадратными скобками обозначены формы облаков: Ci - перистые, Cs - перисто-слоистые, Cc - перисто-кучевые, Ac - высококучевые, As - высокослоистые, Sc - слоисто-кучевые, Ns - слоисто-дождевые, Cu - кучевые, Cb - кучево-дождевые. Подробнее классификацию облаков см. в Атласе облаков (PDF).
  • T - Температура воздуха - температура, измеренная на высоте 2 м над землей.
  • Td - Температура точки росы - температура, при понижении до которой содержащийся в воздухе водяной пар достигнет насыщения.
  • f - Относительная влажность воздуха - влажноcть воздуха, измеренная на высоте 2 м над землей.
  • Te - Эффективная температура - температура, которую ощущает одетый по сезону человек в тени. Характеристика душности погоды. При расчете учитывается влияние влажности воздуха и скорости ветра на теплоощущения человека.
  • Tes - Эффективная температура на солнце - температура, которую ощущает человек, с поправкой на солнечный нагрев. Характеристика знойности погоды. Зависит от высоты солнца над горизонтом, облачности и скорости ветра. Ночью, в пасмурную погоду, а также при ветре 12 м/с и более поправка равна нулю.
  • P - Атмосферное давление - приведенное к уровню моря атмосферное давление.
  • Po - Атмосферное давление - измеренное на уровне метеостанции атмосферное давление.
  • Tmin - Минимальная температура - минимум температуры воздуха на высоте 2 м над землей.
  • Tmax - Максимальная температура - максимум температуры воздуха на высоте 2 м над землей.
  • R - Количество осадков - Количество выпавших осадков за период времени, мм. При наведении курсора мыши на число - период времени, за который выпало указанное количество осадков.
  • R24 - Количество осадков - Количество выпавших осадков за 24 часа, мм.
  • S - Снежный покров - Высота снежного покрова, см. При наведении курсора мыши на число - состояние снежного покрова и степень покрытия местности в баллах.